User: anonymous
Location: Unspecified
(0.0000°N, 0.0000°E)
Time: 06:18:39
(UTC+00:00)
Language:

A-11 Canister half - Orbit

View from above orbital plane
View from above orbital plane
View from above satellite
View from above satellite

Ground track
Ground track

The orbit data is extracted from the following two-line orbital elements,

1 00051U 60009C   14264.09002994 -.00000086  00000-0  00000+0 0  6554
2 00051 047.2142 352.9439 0102360 050.7456 013.0923 12.18237809408519
Epoch (UTC): 21 September 2014 02:09:38
Eccentricity: 0.0102360
inclination: 47.2142°
perigee height: 1518 km
apogee height: 1682 km
right ascension of ascending node: 352.9439°
argument of perigee: 50.7456°
revolutions per day: 12.18237809
mean anomaly at epoch: 13.0923°
orbit number at epoch: 40851

The dashed part of the orbit path shows where the satellite is in the earth's shadow,  

DLR